| time (UTC) | temp F | wind direction | speed MPH | gust MPH | rain 1hr in | rain 24hr in | rain mn in | humidity % | barometer mb |
| 20260505130106 | 54 | 231 | 2.0 | 2.0 | 0.00 | 0.00 | 0.00 | 96 | 1015.1 |
| 20260505124555 | 54 | 219 | 1.0 | 2.0 | 0.00 | 0.00 | 0.00 | 96 | 1015.2 |
| 20260505124052 | 54 | 310 | 2.0 | 3.0 | 0.00 | 0.00 | 0.00 | 96 | 1015.0 |
| 20260505123548 | 54 | 322 | 2.0 | 2.0 | 0.00 | 0.00 | 0.00 | 96 | 1014.8 |
| 20260505123045 | 54 | 309 | 1.0 | 2.0 | 0.00 | 0.00 | 0.00 | 96 | 1015.0 |
| 20260505122542 | 54 | 328 | 2.0 | 3.0 | 0.00 | 0.00 | 0.00 | 96 | 1015.1 |
| 20260505122039 | 54 | 285 | 1.0 | 1.0 | 0.00 | 0.00 | 0.00 | 96 | 1015.2 |
| 20260505121535 | 53 | 224 | 2.0 | 3.0 | 0.00 | 0.00 | 0.00 | 96 | 1015.2 |
| 20260505121032 | 53 | 250 | 2.0 | 2.0 | 0.00 | 0.00 | 0.00 | 97 | 1015.2 |
| 20260505120528 | 53 | 348 | 1.0 | 1.0 | 0.00 | 0.00 | 0.00 | 97 | 1015.1 |
| 20260505120024 | 53 | 358 | 0.0 | 0.0 | 0.00 | 0.00 | 0.00 | 97 | 1015.1 |
| 20260505115518 | 53 | 300 | 1.0 | 2.0 | 0.00 | 0.00 | 0.00 | 97 | 1015.0 |
| 20260505115017 | 53 | 333 | 1.0 | 1.0 | 0.00 | 0.00 | 0.00 | 97 | 1014.9 |
| 20260505114513 | 53 | 282 | 2.0 | 2.0 | 0.00 | 0.00 | 0.00 | 97 | 1015.0 |
| 20260505114009 | 53 | 334 | 1.0 | 1.0 | 0.00 | 0.00 | 0.00 | 97 | 1015.1 |
| 20260505113506 | 53 | 298 | 2.0 | 3.0 | 0.00 | 0.00 | 0.00 | 97 | 1014.9 |
| 20260505113003 | 53 | 257 | 1.0 | 2.0 | 0.00 | 0.00 | 0.00 | 98 | 1015.0 |
| 20260505112459 | 53 | 242 | 4.0 | 4.0 | 0.00 | 0.00 | 0.00 | 98 | 1014.8 |
| 20260505111956 | 53 | 292 | 4.0 | 6.0 | 0.00 | 0.00 | 0.00 | 98 | 1014.8 |
| 20260505111450 | 53 | 299 | 1.0 | 1.0 | 0.00 | 0.00 | 0.00 | 98 | 1014.9 |
| 20260505110947 | 53 | 229 | 3.0 | 4.0 | 0.00 | 0.00 | 0.00 | 98 | 1015.0 |
| 20260505110444 | 53 | 270 | 2.0 | 3.0 | 0.00 | 0.00 | 0.00 | 98 | 1015.0 |
| 20260505101914 | 53 | 13 | 0.0 | 1.0 | 0.00 | 0.00 | 0.00 | 98 | 1015.4 |
| 20260505101409 | 53 | 359 | 0.0 | 0.0 | 0.00 | 0.00 | 0.00 | 98 | 1015.4 |
| 20260505100905 | 53 | 240 | 2.0 | 3.0 | 0.00 | 0.00 | 0.00 | 98 | 1015.3 |
| 20260505100402 | 53 | 281 | 1.0 | 1.0 | 0.00 | 0.00 | 0.00 | 98 | 1015.4 |
| 20260505095857 | 53 | 327 | 0.0 | 1.0 | 0.00 | 0.00 | 0.00 | 98 | 1015.5 |
| 20260505095355 | 53 | 306 | 3.0 | 3.0 | 0.00 | 0.00 | 0.00 | 98 | 1015.4 |
| 20260505094851 | 52 | 274 | 1.0 | 1.0 | 0.00 | 0.00 | 0.00 | 98 | 1015.5 |
| 20260505094348 | 52 | 283 | 1.0 | 1.0 | 0.00 | 0.00 | 0.00 | 99 | 1015.3 |
| 20260505093844 | 53 | 329 | 0.0 | 0.0 | 0.00 | 0.00 | 0.00 | 99 | 1015.4 |
| 20260505093341 | 52 | 304 | 1.0 | 1.0 | 0.00 | 0.00 | 0.00 | 99 | 1015.4 |
| 20260505092838 | 52 | 333 | 0.0 | 0.0 | 0.00 | 0.00 | 0.00 | 99 | 1015.6 |
| 20260505092337 | 52 | 292 | 1.0 | 1.0 | 0.00 | 0.00 | 0.00 | 99 | 1015.4 |
| 20260505091833 | 52 | 333 | 1.0 | 2.0 | 0.00 | 0.00 | 0.00 | 99 | 1015.2 |
| 20260505091332 | 52 | 294 | 2.0 | 3.0 | 0.00 | 0.00 | 0.00 | 99 | 1015.5 |
| 20260505090829 | 52 | 292 | 1.0 | 1.0 | 0.00 | 0.00 | 0.00 | 99 | 1015.5 |
| 20260505090327 | 52 | 349 | 2.0 | 3.0 | 0.00 | 0.00 | 0.00 | 99 | 1015.6 |
| 20260505085824 | 52 | 32 | 0.0 | 0.0 | 0.00 | 0.00 | 0.00 | 99 | 1016.0 |
| 20260505085322 | 52 | 10 | 0.0 | 0.0 | 0.00 | 0.00 | 0.00 | 99 | 1015.9 |
| 20260505084819 | 52 | 3 | 1.0 | 1.0 | 0.00 | 0.00 | 0.00 | 99 | 1016.0 |
| 20260505084318 | 52 | 359 | 0.0 | 0.0 | 0.00 | 0.00 | 0.00 | 99 | 1015.9 |
| 20260505083814 | 52 | 271 | 2.0 | 3.0 | 0.00 | 0.00 | 0.00 | 99 | 1015.8 |
| 20260505083312 | 53 | 1 | 0.0 | 0.0 | 0.00 | 0.00 | 0.00 | 99 | 1015.8 |
| 20260505082808 | 53 | 348 | 0.0 | 1.0 | 0.00 | 0.00 | 0.00 | 99 | 1016.0 |
| 20260505082305 | 53 | 11 | 0.0 | 0.0 | 0.00 | 0.00 | 0.00 | 99 | 1015.9 |
| 20260505081801 | 53 | 337 | 0.0 | 1.0 | 0.00 | 0.00 | 0.00 | 99 | 1015.8 |
| 20260505081258 | 53 | 291 | 2.0 | 3.0 | 0.00 | 0.00 | 0.00 | 99 | 1016.1 |
| 20260505080755 | 53 | 326 | 1.0 | 2.0 | 0.00 | 0.00 | 0.00 | 99 | 1016.0 |
| 20260505080251 | 53 | 285 | 2.0 | 2.0 | 0.00 | 0.00 | 0.00 | 99 | 1015.9 |
| 20260505075746 | 53 | 298 | 2.0 | 3.0 | 0.00 | 0.00 | 0.00 | 99 | 1015.9 |
| 20260505075244 | 53 | 283 | 1.0 | 3.0 | 0.00 | 0.00 | 0.00 | 99 | 1016.0 |
| 20260505074741 | 53 | 357 | 0.0 | 1.0 | 0.00 | 0.00 | 0.00 | 99 | 1016.0 |
| 20260505074238 | 53 | 323 | 1.0 | 1.0 | 0.00 | 0.00 | 0.00 | 99 | 1016.2 |
| 20260505073736 | 52 | 3 | 1.0 | 1.0 | 0.00 | 0.00 | 0.00 | 99 | 1016.0 |
| 20260505073233 | 52 | 309 | 2.0 | 2.0 | 0.00 | 0.00 | 0.00 | 99 | 1016.1 |
| 20260505072730 | 52 | 296 | 2.0 | 2.0 | 0.00 | 0.00 | 0.00 | 99 | 1015.9 |
| 20260505072226 | 52 | 312 | 1.0 | 1.0 | 0.00 | 0.00 | 0.00 | 99 | 1016.3 |
| 20260505071721 | 52 | 352 | 0.0 | 0.0 | 0.00 | 0.00 | 0.00 | 98 | 1016.4 |
| 20260505071219 | 52 | 46 | 0.0 | 0.0 | 0.00 | 0.00 | 0.00 | 98 | 1016.3 |
| 20260505070716 | 52 | 325 | 2.0 | 2.0 | 0.00 | 0.00 | 0.00 | 98 | 1016.1 |
| 20260505070212 | 52 | 337 | 1.0 | 1.0 | 0.00 | 0.00 | 0.00 | 98 | 1016.2 |
| 20260505065708 | 52 | 358 | 0.0 | 0.0 | 0.00 | 0.00 | 0.00 | 98 | 1016.4 |
| 20260505065205 | 52 | 334 | 2.0 | 3.0 | 0.00 | 0.00 | 0.00 | 98 | 1016.4 |
| 20260505064702 | 52 | 358 | 2.0 | 2.0 | 0.00 | 0.00 | 0.00 | 98 | 1016.2 |
| 20260505064200 | 52 | 322 | 2.0 | 3.0 | 0.00 | 0.00 | 0.00 | 98 | 1016.2 |
| 20260505063657 | 52 | 334 | 3.0 | 6.0 | 0.00 | 0.00 | 0.00 | 98 | 1016.2 |
| 20260505063153 | 52 | 285 | 2.0 | 3.0 | 0.00 | 0.00 | 0.00 | 98 | 1015.8 |
| 20260505062649 | 52 | 272 | 2.0 | 4.0 | 0.00 | 0.00 | 0.00 | 98 | 1015.7 |
| 20260505062147 | 52 | 309 | 2.0 | 3.0 | 0.00 | 0.00 | 0.00 | 98 | 1015.8 |
| 20260505061644 | 52 | 310 | 1.0 | 1.0 | 0.00 | 0.00 | 0.00 | 98 | 1016.1 |
| 20260505061143 | 52 | 239 | 2.0 | 4.0 | 0.00 | 0.00 | 0.00 | 98 | 1016.3 |
| 20260505060640 | 52 | 302 | 3.0 | 4.0 | 0.00 | 0.00 | 0.00 | 98 | 1016.4 |
| 20260505060136 | 52 | 316 | 3.0 | 3.0 | 0.00 | 0.00 | 0.00 | 98 | 1016.2 |
| 20260505055631 | 52 | 348 | 1.0 | 1.0 | 0.00 | 0.00 | 0.00 | 98 | 1016.3 |
| 20260505055128 | 52 | 262 | 4.0 | 6.0 | 0.00 | 0.00 | 0.00 | 98 | 1016.3 |
| 20260505054626 | 51 | 248 | 2.0 | 4.0 | 0.00 | 0.00 | 0.00 | 98 | 1016.3 |
| 20260505054124 | 51 | 311 | 4.0 | 4.0 | 0.00 | 0.00 | 0.00 | 98 | 1016.2 |
| 20260505053621 | 51 | 302 | 3.0 | 3.0 | 0.00 | 0.00 | 0.00 | 98 | 1016.4 |
| 20260505053117 | 51 | 352 | 1.0 | 2.0 | 0.00 | 0.00 | 0.00 | 98 | 1016.3 |
| 20260505052614 | 51 | 23 | 0.0 | 0.0 | 0.00 | 0.00 | 0.00 | 98 | 1016.4 |
| 20260505052112 | 51 | 14 | 0.0 | 0.0 | 0.00 | 0.00 | 0.00 | 98 | 1016.3 |
| 20260505051608 | 51 | 337 | 1.0 | 1.0 | 0.00 | 0.00 | 0.00 | 98 | 1016.4 |
| 20260505051107 | 51 | 7 | 0.0 | 0.0 | 0.00 | 0.00 | 0.00 | 98 | 1016.5 |
| 20260505050604 | 51 | 350 | 0.0 | 1.0 | 0.00 | 0.00 | 0.00 | 98 | 1016.4 |
| 20260505041532 | 51 | 334 | 0.0 | 1.0 | 0.00 | 0.00 | 0.00 | 97 | 1017.3 |
| 20260505041030 | 51 | 300 | 0.0 | 1.0 | 0.00 | 0.00 | 0.00 | 97 | 1017.4 |
| 20260505040527 | 51 | 276 | 1.0 | 1.0 | 0.00 | 0.00 | 0.00 | 97 | 1017.4 |
| 20260505040024 | 51 | 350 | 0.0 | 0.0 | 0.00 | 0.00 | 0.00 | 97 | 1017.2 |
| 20260505035520 | 51 | 23 | 0.0 | 0.0 | 0.00 | 0.00 | 0.00 | 97 | 1017.2 |
| 20260505035017 | 51 | 24 | 2.0 | 2.0 | 0.00 | 0.00 | 0.00 | 97 | 1016.8 |
| 20260505034513 | 52 | 7 | 0.0 | 0.0 | 0.00 | 0.00 | 0.00 | 97 | 1016.1 |
| 20260505034010 | 52 | 355 | 0.0 | 0.0 | 0.00 | 0.00 | 0.00 | 97 | 1016.0 |
| 20260505033507 | 52 | 309 | 2.0 | 2.0 | 0.00 | 0.00 | 0.00 | 97 | 1015.4 |
| 20260505033005 | 52 | 338 | 1.0 | 2.0 | 0.00 | 0.00 | 0.00 | 97 | 1015.6 |
| 20260505032502 | 52 | 277 | 4.0 | 4.0 | 0.00 | 0.00 | 0.00 | 97 | 1015.6 |
| 20260505031959 | 53 | 309 | 1.0 | 2.0 | 0.00 | 0.00 | 0.00 | 97 | 1015.7 |
| 20260505031455 | 52 | 2 | 1.0 | 1.0 | 0.00 | 0.00 | 0.00 | 96 | 1015.5 |
| 20260505030952 | 52 | 348 | 2.0 | 3.0 | 0.00 | 0.00 | 0.00 | 96 | 1015.3 |
| 20260505030449 | 53 | 348 | 1.0 | 2.0 | 0.00 | 0.00 | 0.00 | 96 | 1015.5 |
| 20260505025943 | 53 | 312 | 1.0 | 1.0 | 0.00 | 0.00 | 0.00 | 96 | 1015.7 |
| 20260505025441 | 53 | 290 | 2.0 | 2.0 | 0.00 | 0.00 | 0.00 | 96 | 1015.9 |
| 20260505024940 | 53 | 306 | 2.0 | 2.0 | 0.00 | 0.00 | 0.00 | 96 | 1016.1 |
| 20260505024437 | 53 | 308 | 3.0 | 4.0 | 0.00 | 0.00 | 0.00 | 95 | 1016.0 |
| 20260505023934 | 53 | 312 | 3.0 | 4.0 | 0.00 | 0.00 | 0.00 | 95 | 1016.0 |
| 20260505023431 | 53 | 325 | 2.0 | 3.0 | 0.00 | 0.00 | 0.00 | 95 | 1015.7 |
| 20260505022928 | 53 | 310 | 3.0 | 4.0 | 0.00 | 0.00 | 0.00 | 95 | 1015.9 |
| 20260505022426 | 53 | 307 | 1.0 | 2.0 | 0.00 | 0.00 | 0.00 | 95 | 1016.2 |
| 20260505021923 | 53 | 285 | 4.0 | 4.0 | 0.00 | 0.00 | 0.00 | 95 | 1016.1 |
| 20260505021419 | 54 | 270 | 1.0 | 1.0 | 0.00 | 0.00 | 0.00 | 95 | 1016.1 |
| 20260505020915 | 54 | 252 | 3.0 | 3.0 | 0.00 | 0.00 | 0.00 | 95 | 1015.9 |
| 20260505020410 | 54 | 25 | 0.0 | 1.0 | 0.00 | 0.00 | 0.00 | 95 | 1016.0 |
| 20260505015908 | 54 | 270 | 4.0 | 6.0 | 0.00 | 0.00 | 0.00 | 95 | 1016.0 |
| 20260505015405 | 54 | 312 | 5.0 | 7.0 | 0.00 | 0.00 | 0.00 | 95 | 1015.9 |
| 20260505014902 | 54 | 10 | 0.0 | 0.0 | 0.00 | 0.00 | 0.00 | 95 | 1016.2 |
| 20260505014359 | 54 | 215 | 1.0 | 2.0 | 0.00 | 0.00 | 0.00 | 95 | 1016.2 |
| 20260505013856 | 54 | 31 | 0.0 | 0.0 | 0.00 | 0.00 | 0.00 | 95 | 1016.3 |
| 20260505013353 | 55 | 25 | 0.0 | 0.0 | 0.00 | 0.00 | 0.00 | 95 | 1016.2 |
| 20260505012851 | 55 | 17 | 0.0 | 0.0 | 0.00 | 0.00 | 0.00 | 95 | 1016.5 |
| 20260505012349 | 55 | 5 | 0.0 | 0.0 | 0.00 | 0.00 | 0.00 | 95 | 1016.4 |
| 20260505011844 | 55 | 325 | 1.0 | 1.0 | 0.00 | 0.00 | 0.00 | 95 | 1016.4 |
| 20260505011341 | 55 | 340 | 0.0 | 0.0 | 0.00 | 0.00 | 0.00 | 95 | 1016.4 |
| 20260505010837 | 55 | 286 | 1.0 | 1.0 | 0.00 | 0.00 | 0.00 | 95 | 1016.4 |
| 20260505010333 | 55 | 5 | 1.0 | 1.0 | 0.00 | 0.00 | 0.00 | 94 | 1016.5 |
| 20260505005830 | 55 | 344 | 1.0 | 1.0 | 0.00 | 0.00 | 0.00 | 94 | 1016.4 |
| 20260505005327 | 55 | 9 | 1.0 | 1.0 | 0.00 | 0.00 | 0.00 | 94 | 1016.4 |
| 20260505004825 | 55 | 313 | 3.0 | 4.0 | 0.00 | 0.00 | 0.00 | 94 | 1016.6 |
| 20260505004320 | 55 | 286 | 2.0 | 4.0 | 0.00 | 0.00 | 0.00 | 94 | 1016.5 |
| 20260505003818 | 55 | 285 | 2.0 | 2.0 | 0.00 | 0.00 | 0.00 | 94 | 1016.6 |
| 20260505003315 | 56 | 20 | 1.0 | 1.0 | 0.00 | 0.00 | 0.00 | 94 | 1016.4 |
| 20260505002811 | 56 | 10 | 0.0 | 0.0 | 0.00 | 0.00 | 0.00 | 93 | 1016.6 |
| 20260505002308 | 56 | 25 | 0.0 | 1.0 | 0.00 | 0.00 | 0.00 | 93 | 1016.6 |
| 20260505001807 | 56 | 357 | 0.0 | 1.0 | 0.00 | 0.00 | 0.00 | 92 | 1016.6 |
| 20260505001303 | 56 | 9 | 0.0 | 0.0 | 0.00 | 0.00 | 0.00 | 92 | 1016.5 |
| 20260505000800 | 56 | 2 | 0.0 | 0.0 | 0.00 | 0.00 | 0.00 | 91 | 1016.5 |
| 20260505000258 | 56 | 356 | 0.0 | 0.0 | 0.00 | 0.00 | 0.00 | 91 | 1016.4 |
| 20260504235754 | 57 | 318 | 1.0 | 1.0 | 0.00 | 0.00 | 0.00 | 90 | 1016.3 |
| 20260504235251 | 57 | 298 | 1.0 | 1.0 | 0.00 | 0.00 | 0.00 | 90 | 1016.3 |
| 20260504234748 | 57 | 357 | 1.0 | 1.0 | 0.00 | 0.00 | 0.00 | 89 | 1016.0 |
| 20260504234246 | 57 | 334 | 0.0 | 1.0 | 0.00 | 0.00 | 0.00 | 88 | 1016.2 |
| 20260504233742 | 57 | 355 | 0.0 | 1.0 | 0.00 | 0.00 | 0.00 | 88 | 1016.3 |
| 20260504233237 | 57 | 302 | 2.0 | 2.0 | 0.00 | 0.00 | 0.00 | 86 | 1016.1 |
| 20260504232735 | 58 | 336 | 1.0 | 1.0 | 0.00 | 0.00 | 0.00 | 84 | 1016.1 |
| 20260504232232 | 58 | 3 | 1.0 | 1.0 | 0.00 | 0.00 | 0.00 | 83 | 1016.2 |
| 20260504231728 | 58 | 12 | 0.0 | 1.0 | 0.00 | 0.00 | 0.00 | 83 | 1016.4 |
| 20260504231225 | 59 | 326 | 1.0 | 1.0 | 0.00 | 0.00 | 0.00 | 82 | 1016.1 |
| 20260504230721 | 59 | 297 | 3.0 | 4.0 | 0.00 | 0.00 | 0.00 | 80 | 1016.2 |
| 20260504230220 | 59 | 302 | 3.0 | 3.0 | 0.00 | 0.00 | 0.00 | 79 | 1015.9 |
| 20260504225718 | 60 | 323 | 0.0 | 0.0 | 0.00 | 0.00 | 0.00 | 78 | 1016.1 |
| 20260504225214 | 60 | 304 | 2.0 | 3.0 | 0.00 | 0.00 | 0.00 | 75 | 1016.2 |
| 20260504224711 | 60 | 295 | 3.0 | 6.0 | 0.00 | 0.00 | 0.00 | 74 | 1016.4 |
| 20260504224209 | 60 | 300 | 2.0 | 2.0 | 0.00 | 0.00 | 0.00 | 73 | 1016.4 |
| 20260504223705 | 60 | 247 | 2.0 | 3.0 | 0.00 | 0.00 | 0.00 | 73 | 1016.4 |
| 20260504223200 | 61 | 2 | 0.0 | 0.0 | 0.00 | 0.00 | 0.00 | 72 | 1016.4 |
| 20260504222658 | 61 | 354 | 1.0 | 2.0 | 0.00 | 0.00 | 0.00 | 72 | 1016.4 |
| 20260504222154 | 61 | 269 | 2.0 | 2.0 | 0.00 | 0.00 | 0.00 | 70 | 1016.3 |
| 20260504221652 | 62 | 313 | 0.0 | 1.0 | 0.00 | 0.00 | 0.00 | 71 | 1016.3 |
| 20260504221149 | 62 | 302 | 1.0 | 1.0 | 0.00 | 0.00 | 0.00 | 71 | 1016.3 |
| 20260504220645 | 62 | 277 | 3.0 | 4.0 | 0.00 | 0.00 | 0.00 | 69 | 1016.3 |
| 20260504220143 | 62 | 282 | 2.0 | 2.0 | 0.00 | 0.00 | 0.00 | 66 | 1016.1 |
| 20260504215639 | 62 | 212 | 3.0 | 6.0 | 0.00 | 0.00 | 0.00 | 63 | 1016.1 |
| 20260504215136 | 62 | 257 | 2.0 | 3.0 | 0.00 | 0.00 | 0.00 | 63 | 1016.1 |
| 20260504214632 | 62 | 272 | 2.0 | 4.0 | 0.00 | 0.00 | 0.00 | 61 | 1016.2 |
| 20260504214130 | 63 | 287 | 3.0 | 4.0 | 0.00 | 0.00 | 0.00 | 61 | 1016.2 |
| 20260504213625 | 63 | 305 | 2.0 | 3.0 | 0.00 | 0.00 | 0.00 | 58 | 1015.9 |
| 20260504213122 | 63 | 238 | 2.0 | 3.0 | 0.00 | 0.00 | 0.00 | 57 | 1016.1 |
| 20260504212618 | 63 | 320 | 2.0 | 2.0 | 0.00 | 0.00 | 0.00 | 56 | 1016.1 |
| 20260504212115 | 64 | 186 | 4.0 | 6.0 | 0.00 | 0.00 | 0.00 | 56 | 1016.1 |
| 20260504211613 | 64 | 313 | 2.0 | 3.0 | 0.00 | 0.00 | 0.00 | 56 | 1016.3 |
| 20260504211109 | 64 | 267 | 2.0 | 3.0 | 0.00 | 0.00 | 0.00 | 57 | 1016.1 |
| 20260504210607 | 64 | 287 | 4.0 | 7.0 | 0.00 | 0.00 | 0.00 | 56 | 1016.1 |
| 20260504205601 | 64 | 303 | 2.0 | 2.0 | 0.00 | 0.00 | 0.00 | 56 | 1016.3 |
| 20260504205058 | 64 | 354 | 1.0 | 2.0 | 0.00 | 0.00 | 0.00 | 57 | 1016.5 |
| 20260504204556 | 64 | 323 | 5.0 | 7.0 | 0.00 | 0.00 | 0.00 | 56 | 1016.4 |
| 20260504204055 | 64 | 272 | 4.0 | 6.0 | 0.00 | 0.00 | 0.00 | 54 | 1016.1 |
| 20260504203553 | 64 | 304 | 1.0 | 2.0 | 0.00 | 0.00 | 0.00 | 55 | 1016.1 |
| 20260504203050 | 64 | 238 | 4.0 | 4.0 | 0.00 | 0.00 | 0.00 | 56 | 1016.1 |
| 20260504202545 | 63 | 300 | 3.0 | 4.0 | 0.00 | 0.00 | 0.00 | 57 | 1016.1 |
| 20260504202042 | 65 | 207 | 4.0 | 4.0 | 0.00 | 0.00 | 0.00 | 55 | 1016.2 |
| 20260504201539 | 64 | 348 | 1.0 | 1.0 | 0.00 | 0.00 | 0.00 | 59 | 1016.1 |
| 20260504201037 | 64 | 3 | 2.0 | 3.0 | 0.00 | 0.00 | 0.00 | 57 | 1016.3 |
| 20260504200533 | 64 | 13 | 1.0 | 3.0 | 0.00 | 0.00 | 0.00 | 60 | 1016.3 |
| 20260504200031 | 64 | 16 | 2.0 | 2.0 | 0.00 | 0.00 | 0.00 | 60 | 1016.3 |
| 20260504195526 | 65 | 0 | 3.0 | 4.0 | 0.00 | 0.00 | 0.00 | 59 | 1016.1 |
| 20260504195023 | 64 | 0 | 3.0 | 3.0 | 0.00 | 0.00 | 0.00 | 59 | 1016.2 |
| 20260504194520 | 65 | 42 | 2.0 | 3.0 | 0.00 | 0.00 | 0.00 | 58 | 1016.2 |
| 20260504194015 | 65 | 52 | 1.0 | 1.0 | 0.00 | 0.00 | 0.00 | 57 | 1016.3 |
| 20260504193512 | 65 | 208 | 1.0 | 2.0 | 0.00 | 0.00 | 0.00 | 57 | 1016.1 |
| 20260504193011 | 65 | 253 | 5.0 | 6.0 | 0.00 | 0.00 | 0.00 | 58 | 1016.2 |
| 20260504192509 | 66 | 234 | 4.0 | 4.0 | 0.00 | 0.00 | 0.00 | 57 | 1016.3 |
| 20260504192007 | 66 | 348 | 3.0 | 4.0 | 0.00 | 0.00 | 0.00 | 54 | 1016.4 |
| 20260504191504 | 65 | 151 | 2.0 | 2.0 | 0.00 | 0.00 | 0.00 | 57 | 1016.3 |
| 20260504191000 | 66 | 292 | 2.0 | 2.0 | 0.00 | 0.00 | 0.00 | 56 | 1016.4 |
| 20260504190455 | 65 | 347 | 1.0 | 2.0 | 0.00 | 0.00 | 0.00 | 58 | 1016.4 |
| 20260504185952 | 65 | 278 | 1.0 | 2.0 | 0.00 | 0.00 | 0.00 | 56 | 1016.3 |
| 20260504185449 | 65 | 278 | 2.0 | 3.0 | 0.00 | 0.00 | 0.00 | 55 | 1016.3 |
| 20260504184946 | 65 | 316 | 1.0 | 2.0 | 0.00 | 0.00 | 0.00 | 58 | 1016.5 |
| 20260504184441 | 65 | 341 | 3.0 | 6.0 | 0.00 | 0.00 | 0.00 | 59 | 1016.3 |
| 20260504183937 | 65 | 206 | 3.0 | 4.0 | 0.00 | 0.00 | 0.00 | 59 | 1016.3 |
| 20260504183434 | 66 | 239 | 1.0 | 1.0 | 0.00 | 0.00 | 0.00 | 58 | 1016.2 |
| 20260504182933 | 67 | 310 | 1.0 | 1.0 | 0.00 | 0.00 | 0.00 | 58 | 1016.1 |
| 20260504182429 | 66 | 17 | 2.0 | 3.0 | 0.00 | 0.00 | 0.00 | 61 | 1016.1 |
| 20260504181926 | 65 | 27 | 1.0 | 1.0 | 0.00 | 0.00 | 0.00 | 61 | 1016.2 |
| 20260504181423 | 66 | 8 | 1.0 | 2.0 | 0.00 | 0.00 | 0.00 | 62 | 1016.1 |
| 20260504180922 | 66 | 284 | 5.0 | 7.0 | 0.00 | 0.00 | 0.00 | 61 | 1016.2 |
| 20260504180421 | 65 | 293 | 3.0 | 4.0 | 0.00 | 0.00 | 0.00 | 62 | 1016.2 |
| 20260504175918 | 65 | 342 | 0.0 | 1.0 | 0.00 | 0.00 | 0.00 | 57 | 1016.2 |
| 20260504175415 | 65 | 278 | 2.0 | 2.0 | 0.00 | 0.00 | 0.00 | 62 | 1016.3 |
| 20260504174913 | 64 | 255 | 3.0 | 4.0 | 0.00 | 0.00 | 0.00 | 64 | 1016.0 |
| 20260504174410 | 65 | 301 | 4.0 | 6.0 | 0.00 | 0.00 | 0.00 | 65 | 1016.2 |
| 20260504173908 | 63 | 269 | 2.0 | 3.0 | 0.00 | 0.00 | 0.00 | 69 | 1016.1 |
| 20260504173403 | 64 | 268 | 3.0 | 3.0 | 0.00 | 0.00 | 0.00 | 67 | 1016.2 |
| 20260504172901 | 64 | 286 | 3.0 | 4.0 | 0.00 | 0.00 | 0.00 | 68 | 1016.4 |
| 20260504172357 | 63 | 253 | 2.0 | 2.0 | 0.00 | 0.00 | 0.00 | 70 | 1016.4 |
| 20260504171853 | 63 | 310 | 2.0 | 3.0 | 0.00 | 0.00 | 0.00 | 72 | 1016.2 |
| 20260504171351 | 62 | 311 | 0.0 | 1.0 | 0.00 | 0.00 | 0.00 | 74 | 1016.2 |
| 20260504170848 | 61 | 282 | 4.0 | 4.0 | 0.00 | 0.00 | 0.00 | 73 | 1016.2 |
| 20260504170344 | 61 | 269 | 4.0 | 4.0 | 0.00 | 0.00 | 0.00 | 75 | 1016.1 |
| 20260504160303 | 57 | 278 | 1.0 | 1.0 | 0.00 | 0.00 | 0.00 | 86 | 1016.1 |
| 20260504150728 | 53 | 3 | 1.0 | 1.0 | 0.00 | 0.00 | 0.00 | 97 | 1016.0 |
| 20260504150225 | 52 | 317 | 1.0 | 1.0 | 0.00 | 0.00 | 0.00 | 97 | 1016.1 |
| 20260504141154 | 48 | 5 | 0.0 | 1.0 | 0.00 | 0.00 | 0.00 | 99 | 1016.1 |
| 20260504140651 | 48 | 269 | 0.0 | 0.0 | 0.00 | 0.00 | 0.00 | 99 | 1015.8 |
| 20260504140146 | 47 | 269 | 0.0 | 0.0 | 0.00 | 0.00 | 0.00 | 99 | 1016.1 |